Galloway, OH

11:41 PM EST on February 21, 2017 (GMT -0500)
Bolton

Weather History for KTZR - November, 2012

Change the Weather History Date:

Monday, November 19, 2012

  Actual Average Record
Temperature  
Mean Temperature 40 °F -  
Max Temperature 55 °F 49 °F 66 °F (1999)
Min Temperature 26 °F 34 °F 8 °F (2014)
Degree Days  
Heating Degree Days 24    
Moisture  
Dew Point 30 °F    
Average Humidity 76    
Maximum Humidity 89    
Minimum Humidity 47    
Precipitation  
Precipitation 0.00 in - - ()
Sea Level Pressure  
Sea Level Pressure 30.32 in    
Wind  
Wind Speed 0 mph (ESE)    
Max Wind Speed 6 mph    
Max Gust Speed -    
Visibility 10 miles    
Events      
Averages and records for this station are not official NWS values.
T = Trace of Precipitation, MM = Missing Value Source: NWS Daily Summary

Daily Weather History Graph

Daily Weather History Graph

Search for Another Location

Airport or City:

Trip Planner

Search our weather history database for the weather conditions in past years. The results will help you decide how hot, cold, wet, or windy it might be!

Date:

Astronomy

Nov. 19, 2012 Rise Set
Actual Time 7:22 AM EST 5:13 PM EST
Civil Twilight 6:53 AM EST 5:42 PM EST
Nautical Twilight 6:20 AM EST 6:15 PM EST
Astronomical Twilight 5:48 AM EST 6:47 PM EST
Moon 12:24 PM EST (11/19) 11:39 PM EST (11/19)
Length of Visible Light 10h 49m
Length of Day
9h 50m
Waxing Crescent, 40% of the Moon is Illuminated
Nov 19
Waxing Crescent
Nov 20
First Quarter
Nov 28
Full
Dec 6
Last Quarter
Dec 13
New

Hourly Weather History & Observations

Time (EST) Temp. Windchill Dew Point Humidity Pressure Visibility Wind Dir Wind Speed Gust Speed Precip Events Conditions
12:15 AM 32.0 °F - 25.7 °F 78% 30.40 in 10.0 mi Calm Calm - N/A   Clear
12:35 AM 33.1 °F - 26.1 °F 75% 30.39 in 10.0 mi Calm Calm - N/A   Clear
12:55 AM 32.7 °F - 26.8 °F 79% 30.38 in 10.0 mi Calm Calm - N/A   Clear
1:15 AM 36.5 °F - 27.0 °F 68% 30.38 in 10.0 mi Calm Calm - N/A   Clear
1:35 AM 34.3 °F - 26.6 °F 73% 30.38 in 10.0 mi Calm Calm - N/A   Clear
1:55 AM 35.2 °F - 27.0 °F 72% 30.38 in 10.0 mi Calm Calm - N/A   Clear
2:15 AM 30.9 °F - 26.2 °F 83% 30.37 in 10.0 mi Calm Calm - N/A   Clear
2:35 AM 30.6 °F - 24.4 °F 78% 30.37 in 10.0 mi Calm Calm - N/A   Clear
2:55 AM 28.6 °F - 24.3 °F 84% 30.37 in 10.0 mi Calm Calm - N/A   Clear
3:15 AM 29.1 °F - 24.6 °F 83% 30.38 in 10.0 mi Calm Calm - N/A   Clear
3:35 AM 28.4 °F - 24.6 °F 86% 30.37 in 10.0 mi Calm Calm - N/A   Clear
3:55 AM 27.5 °F - 24.3 °F 88% 30.36 in 10.0 mi Calm Calm - N/A   Clear
4:15 AM 27.1 °F - 23.5 °F 86% 30.36 in 10.0 mi Calm Calm - N/A   Clear
4:35 AM 27.0 °F - 23.9 °F 88% 30.36 in 10.0 mi Calm Calm - N/A   Clear
4:55 AM 28.4 °F - 24.8 °F 86% 30.37 in 10.0 mi Calm Calm - N/A   Clear
5:15 AM 26.8 °F - 23.9 °F 89% 30.37 in 10.0 mi Calm Calm - N/A   Clear
5:35 AM 27.1 °F - 24.1 °F 88% 30.36 in 10.0 mi Calm Calm - N/A   Clear
5:55 AM 30.4 °F - 25.9 °F 83% 30.36 in 10.0 mi Calm Calm - N/A   Clear
6:15 AM 26.8 °F - 23.7 °F 88% 30.36 in 10.0 mi Calm Calm - N/A   Clear
6:35 AM 28.0 °F - 24.6 °F 87% 30.37 in 10.0 mi Calm Calm - N/A   Clear
6:55 AM 27.7 °F 23.8 °F 24.4 °F 88% 30.37 in 10.0 mi East 3.5 mph - N/A   Clear
7:15 AM 31.6 °F - 26.6 °F 82% 30.37 in 10.0 mi Calm Calm - N/A   Clear
7:20 AM 32.0 °F - 26.6 °F 80% 30.37 in 10.0 mi Calm Calm - N/A   Clear
7:50 AM 33.8 °F - 26.6 °F 75% 30.37 in 10.0 mi Calm Calm - N/A   Clear
8:50 AM 35.6 °F - 30.2 °F 81% 30.36 in 10.0 mi Calm Calm - N/A   Clear
9:50 AM 42.8 °F 41.1 °F 32.0 °F 66% 30.36 in 10.0 mi ESE 3.5 mph - N/A   Clear
10:50 AM 48.2 °F - 33.8 °F 58% 30.36 in 10.0 mi SSE 5.8 mph - N/A   Clear
11:50 AM 50.0 °F - 35.6 °F 58% 30.34 in 10.0 mi Calm Calm - N/A   Clear
12:47 PM 51.8 °F - 35.6 °F 54% 30.31 in 10.0 mi Calm Calm - N/A   Clear
1:47 PM 55.4 °F - 35.6 °F 47% 30.29 in 10.0 mi Calm Calm - N/A   Clear
2:50 PM 53.6 °F - 35.6 °F 51% 30.27 in 10.0 mi Calm Calm - N/A   Clear
3:52 PM 53.6 °F - 35.6 °F 51% 30.26 in 10.0 mi Calm Calm - N/A   Clear
4:50 PM 51.8 °F - 35.6 °F 54% 30.24 in 10.0 mi Calm Calm - N/A   Clear
5:50 PM 46.4 °F - 35.6 °F 66% 30.25 in 10.0 mi Calm Calm - N/A   Clear
6:50 PM 44.6 °F - 35.6 °F 71% 30.25 in 10.0 mi Calm Calm - N/A   Clear
8:15 PM 42.8 °F - 34.9 °F 74% 30.23 in 10.0 mi Calm Calm - N/A   Clear
8:35 PM 41.5 °F - 34.0 °F 75% 30.23 in 10.0 mi Calm Calm - N/A   Clear
8:55 PM 42.1 °F - 34.7 °F 75% 30.23 in 10.0 mi Calm Calm - N/A   Clear
9:15 PM 41.9 °F - 34.3 °F 75% 30.22 in 10.0 mi Calm Calm - N/A   Clear
9:35 PM 44.8 °F - 34.7 °F 68% 30.22 in 10.0 mi Calm Calm - N/A   Clear
9:55 PM 42.6 °F - 34.2 °F 72% 30.22 in 10.0 mi Calm Calm - N/A   Clear
10:15 PM 37.8 °F - 33.8 °F 86% 30.21 in 10.0 mi Calm Calm - N/A   Clear
10:35 PM 39.0 °F - 34.2 °F 83% 30.22 in 10.0 mi Calm Calm - N/A   Clear
10:55 PM 38.5 °F - 34.2 °F 84% 30.21 in 10.0 mi Calm Calm - N/A   Clear
11:15 PM 37.6 °F - 33.8 °F 86% 30.21 in 10.0 mi Calm Calm - N/A   Clear
11:35 PM 37.9 °F - 33.6 °F 84% 30.20 in 10.0 mi Calm Calm - N/A   Clear
11:55 PM 38.3 °F - 33.6 °F 83% 30.20 in 10.0 mi Calm Calm - N/A   Clear